Weather History for Kaiser, MO

Change the Weather History Date:

Monday, November 26, 2012

  Actual Average Record
Temperature  
Mean Temperature 36 °F -  
Max Temperature 44 °F 51 °F 71 °F (2006)
Min Temperature 26 °F 32 °F 15 °F (1996)
Degree Days  
Heating Degree Days 29    
Moisture  
Dew Point 24 °F    
Average Humidity 61    
Maximum Humidity 75    
Minimum Humidity 39    
Precipitation  
Precipitation 0.00 in - - ()
Sea Level Pressure  
Sea Level Pressure 30.21 in    
Wind  
Wind Speed 9 mph (NE)    
Max Wind Speed 18 mph    
Max Gust Speed 25 mph    
Visibility 10 miles    
Events      
Averages and records for this station are not official NWS values.
T = Trace of Precipitation, MM = Missing Value Source: NWS Daily Summary

Daily Weather History Graph

Daily Weather History Graph

Search for Another Location

Airport:

Trip Planner

Search our weather history database for the weather conditions in past years. The results will help you decide how hot, cold, wet, or windy it might be!

Date:

Astronomy

Nov. 26, 2012 Rise Set
Actual Time 7:03 AM CST 4:51 PM CST
Civil Twilight 6:34 AM CST 5:20 PM CST
Nautical Twilight 6:01 AM CST 5:53 PM CST
Astronomical Twilight 5:30 AM CST 6:24 PM CST
Moon 3:43 PM CST (11/26) 5:14 AM CST (11/26)
Length of Visible Light 10h 46m
Length of Day
9h 48m
Waxing Gibbous, 97% of the Moon is Illuminated
Nov 26
Waxing Gibbous
Nov 28
Full
Dec 6
Last Quarter
Dec 13
New
Dec 19
First Quarter

Hourly Weather History & Observations

Time (CST) Temp. Windchill Dew Point Humidity Pressure Visibility Wind Dir Wind Speed Gust Speed Precip Events Conditions
12:15 AM 39.2 °F 33.0 °F 28.4 °F 65% 30.03 in 10.0 mi NE 9.2 mph - N/A   Clear
12:35 AM 39.2 °F 32.5 °F 28.4 °F 65% 30.03 in 10.0 mi NE 10.4 mph - N/A   Clear
12:55 AM 37.4 °F 31.4 °F 28.4 °F 70% 30.03 in 10.0 mi ENE 8.1 mph - N/A   Clear
1:15 AM 37.4 °F 31.4 °F 26.6 °F 65% 30.03 in 10.0 mi NE 8.1 mph - N/A   Clear
1:35 AM 37.4 °F 31.4 °F 26.6 °F 65% 30.04 in 10.0 mi NE 8.1 mph - N/A   Clear
1:55 AM 35.6 °F 28.6 °F 26.6 °F 70% 30.04 in 10.0 mi NE 9.2 mph - N/A   Clear
2:15 AM 37.4 °F 30.8 °F 26.6 °F 65% 30.04 in 10.0 mi NE 9.2 mph - N/A   Clear
2:35 AM 35.6 °F 29.2 °F 26.6 °F 70% 30.05 in 10.0 mi NE 8.1 mph - N/A   Clear
2:55 AM 35.6 °F 29.2 °F 26.6 °F 70% 30.06 in 10.0 mi NE 8.1 mph - N/A   Clear
3:15 AM 35.6 °F 29.9 °F 26.6 °F 70% 30.06 in 10.0 mi NE 6.9 mph - N/A   Clear
3:35 AM 35.6 °F 29.2 °F 26.6 °F 70% 30.06 in 10.0 mi NE 8.1 mph - N/A   Clear
3:55 AM 35.6 °F 29.2 °F 26.6 °F 70% 30.06 in 10.0 mi NE 8.1 mph - N/A   Clear
4:15 AM 33.8 °F 27.0 °F 26.6 °F 75% 30.06 in 10.0 mi NE 8.1 mph - N/A   Clear
4:55 AM 33.8 °F 27.0 °F 26.6 °F 75% 30.07 in 10.0 mi NE 8.1 mph - N/A   Clear
5:15 AM 33.8 °F 26.4 °F 26.6 °F 75% 30.08 in 10.0 mi NE 9.2 mph - N/A   Clear
5:35 AM 33.8 °F 26.4 °F 26.6 °F 75% 30.09 in 10.0 mi NE 9.2 mph - N/A   Clear
5:55 AM 33.8 °F 27.7 °F 24.8 °F 70% 30.09 in 10.0 mi NNE 6.9 mph - N/A   Clear
6:15 AM 33.8 °F 26.4 °F 26.6 °F 75% 30.10 in 10.0 mi NE 9.2 mph - N/A   Clear
6:35 AM 33.8 °F 25.8 °F 24.8 °F 70% 30.10 in 10.0 mi NE 10.4 mph 18.4 mph N/A   Clear
6:55 AM 33.8 °F 25.3 °F 24.8 °F 70% 30.11 in 10.0 mi NE 11.5 mph 16.1 mph N/A   Clear
7:15 AM 33.8 °F 25.3 °F 24.8 °F 70% 30.12 in 10.0 mi NE 11.5 mph - N/A   Clear
7:35 AM 33.8 °F 25.3 °F 24.8 °F 70% 30.13 in 10.0 mi NE 11.5 mph 18.4 mph N/A   Clear
7:55 AM 33.8 °F 26.4 °F 24.8 °F 70% 30.14 in 10.0 mi ENE 9.2 mph - N/A   Clear
8:15 AM 35.6 °F 27.5 °F 24.8 °F 65% 30.14 in 10.0 mi NE 11.5 mph - N/A   Clear
8:35 AM 35.6 °F 27.1 °F 24.8 °F 65% 30.16 in 10.0 mi NE 12.7 mph 17.3 mph N/A   Clear
8:55 AM 37.4 °F 28.2 °F 26.6 °F 65% 30.16 in 10.0 mi ENE 16.1 mph - N/A   Clear
9:15 AM 37.4 °F 29.3 °F 26.6 °F 65% 30.17 in 10.0 mi ENE 12.7 mph - N/A   Clear
9:35 AM 39.2 °F 31.2 °F 26.6 °F 61% 30.18 in 10.0 mi NE 13.8 mph - N/A   Clear
9:55 AM 39.2 °F 31.2 °F 26.6 °F 61% 30.19 in 10.0 mi NE 13.8 mph 17.3 mph N/A   Clear
10:15 AM 41.0 °F 33.5 °F 26.6 °F 57% 30.19 in 10.0 mi ENE 13.8 mph - N/A   Mostly Cloudy
10:35 AM 41.0 °F 32.8 °F 26.6 °F 57% 30.19 in 10.0 mi ENE 16.1 mph 21.9 mph N/A   Overcast
10:55 AM 41.0 °F 34.7 °F 26.6 °F 57% 30.19 in 10.0 mi NE 10.4 mph 16.1 mph N/A   Overcast
11:15 AM 42.8 °F 36.2 °F 26.6 °F 53% 30.19 in 10.0 mi ENE 12.7 mph 17.3 mph N/A   Overcast
11:35 AM 42.8 °F 35.8 °F 26.6 °F 53% 30.19 in 10.0 mi NE 13.8 mph 20.7 mph N/A   Mostly Cloudy
11:55 AM 44.6 °F 38.4 °F 26.6 °F 49% 30.20 in 10.0 mi ENE 12.7 mph 21.9 mph N/A   Overcast
12:15 PM 42.8 °F 37.0 °F 26.6 °F 53% 30.19 in 10.0 mi NNE 10.4 mph - N/A   Mostly Cloudy
12:35 PM 44.6 °F 38.8 °F 26.6 °F 49% 30.19 in 10.0 mi NE 11.5 mph 17.3 mph N/A   Overcast
12:55 PM 44.6 °F 38.4 °F 26.6 °F 49% 30.20 in 10.0 mi NNE 12.7 mph 18.4 mph N/A   Overcast
1:15 PM 44.6 °F 38.8 °F 23.0 °F 43% 30.20 in 10.0 mi NE 11.5 mph 19.6 mph N/A   Overcast
1:35 PM 44.6 °F 36.9 °F 21.2 °F 39% 30.20 in 10.0 mi NE 18.4 mph - N/A   Overcast
1:55 PM 44.6 °F 38.4 °F 21.2 °F 39% 30.20 in 10.0 mi NNE 12.7 mph 24.2 mph N/A   Overcast
2:15 PM 44.6 °F 37.8 °F 21.2 °F 39% 30.21 in 10.0 mi NE 15.0 mph 21.9 mph N/A   Overcast
2:35 PM 44.6 °F 38.4 °F 21.2 °F 39% 30.22 in 10.0 mi North 12.7 mph 18.4 mph N/A   Overcast
2:55 PM 42.8 °F 36.2 °F 23.0 °F 46% 30.23 in 10.0 mi North 12.7 mph 23.0 mph N/A   Overcast
3:15 PM 42.8 °F 37.5 °F 21.2 °F 42% 30.24 in 10.0 mi NNE 9.2 mph 20.7 mph N/A   Overcast
3:35 PM 41.0 °F 36.4 °F 23.0 °F 49% 30.25 in 10.0 mi NNE 6.9 mph - N/A   Overcast
3:55 PM 41.0 °F 33.9 °F 23.0 °F 49% 30.26 in 10.0 mi NE 12.7 mph 25.3 mph N/A   Overcast
4:15 PM 41.0 °F 35.2 °F 24.8 °F 53% 30.27 in 10.0 mi NNE 9.2 mph 20.7 mph N/A   Overcast
4:35 PM 41.0 °F 35.8 °F 24.8 °F 53% 30.28 in 10.0 mi NNE 8.1 mph 16.1 mph N/A   Overcast
4:55 PM 41.0 °F 35.8 °F 24.8 °F 53% 30.29 in 10.0 mi NNE 8.1 mph 17.3 mph N/A   Overcast
5:15 PM 39.2 °F 33.0 °F 24.8 °F 56% 30.29 in 10.0 mi North 9.2 mph 20.7 mph N/A   Overcast
5:35 PM 39.2 °F 32.0 °F 24.8 °F 56% 30.31 in 10.0 mi North 11.5 mph 18.4 mph N/A   Overcast
5:55 PM 39.2 °F 32.0 °F 23.0 °F 52% 30.31 in 10.0 mi NE 11.5 mph 21.9 mph N/A   Overcast
6:15 PM 37.4 °F 31.4 °F 23.0 °F 56% 30.33 in 10.0 mi North 8.1 mph - N/A   Overcast
6:35 PM 37.4 °F 32.1 °F 21.2 °F 52% 30.34 in 10.0 mi NNE 6.9 mph - N/A   Scattered Clouds
6:55 PM 35.6 °F 29.2 °F 21.2 °F 56% 30.35 in 10.0 mi NNE 8.1 mph - N/A   Partly Cloudy
7:15 PM 35.6 °F 29.9 °F 23.0 °F 60% 30.35 in 10.0 mi NNE 6.9 mph - N/A   Clear
7:35 PM 33.8 °F 27.7 °F 23.0 °F 65% 30.36 in 10.0 mi NNE 6.9 mph - N/A   Clear
7:55 PM 33.8 °F - 23.0 °F 65% 30.37 in 10.0 mi Calm Calm - N/A   Clear
8:15 PM 33.8 °F 29.6 °F 23.0 °F 65% 30.37 in 10.0 mi North 4.6 mph - N/A   Clear
8:35 PM 32.0 °F 27.5 °F 21.2 °F 64% 30.38 in 10.0 mi North 4.6 mph - N/A   Clear
8:55 PM 32.0 °F 26.4 °F 21.2 °F 64% 30.39 in 10.0 mi North 5.8 mph - N/A   Clear
9:15 PM 30.2 °F 25.4 °F 21.2 °F 69% 30.40 in 10.0 mi North 4.6 mph - N/A   Scattered Clouds
9:35 PM 30.2 °F 24.3 °F 21.2 °F 69% 30.41 in 10.0 mi North 5.8 mph - N/A   Overcast
9:55 PM 30.2 °F 23.4 °F 21.2 °F 69% 30.41 in 10.0 mi North 6.9 mph - N/A   Scattered Clouds
10:15 PM 30.2 °F 24.3 °F 19.4 °F 64% 30.42 in 10.0 mi NNE 5.8 mph - N/A   Clear
10:55 PM 28.4 °F - 21.2 °F 74% 30.43 in 10.0 mi Calm Calm - N/A   Clear
11:15 PM 28.4 °F 23.3 °F 21.2 °F 74% 30.43 in 10.0 mi North 4.6 mph - N/A   Clear
11:35 PM 28.4 °F - 19.4 °F 69% 30.43 in 10.0 mi Calm Calm - N/A   Clear
11:55 PM 26.6 °F 21.2 °F 19.4 °F 74% 30.43 in 10.0 mi North 4.6 mph - N/A   Clear